#timestamp,LO_Frequency,Hit,StdDev 
1621436415.4,286047000.4,N
1621436435.3,286047000.1,N
1621436485.1,286047000.1,E
1621436495.1,286047000.2,N
1621436496.0,286047000.2,P
1621436515.8,286047002.6,P
1621436535.6,286047001.7,N
1621436555.5,286047002.2,N
1621436575.3,286047004.1,Y
1621436595.2,286047000.3,P
1621436615.9,286047000.0,N
1621436635.7,286046999.7,N
1621436655.6,286046999.7,N
1621436675.4,286047002.7,Y
1621436695.2,286047001.0,P
1621436715.1,286047000.2,N
1621436716.0,286047000.2,N
1621436735.8,286047000.5,N
1621436755.7,286047002.2,Y
1621436775.5,286046999.7,P
1621436795.3,286047000.2,N
1621436815.2,286047000.1,N
1621436835.0,286047001.0,Y
1621436835.9,286047001.0,P
1621436855.8,286047000.6,N
1621436875.6,286047000.4,N
1621436895.4,286047000.0,N
1621436915.3,286047000.5,N
1621436935.1,286047000.4,N
1621436955.9,286047000.0,N
1621436975.7,286047002.4,Y
1621436995.5,286046999.7,P
1621437015.4,286047005.6,P
1621437035.2,286047001.3,N
1621437055.0,286047002.2,N
1621437055.9,286047002.2,N
1621437075.8,286047002.0,N
1621437095.6,286047003.9,N
1621437115.5,286047003.7,N
1621437135.3,286047003.0,N
1621437155.1,286047003.5,N
1621437175.9,286047004.3,N
1621437195.7,286047003.4,N
1621437215.6,286047005.9,Y
1621437235.4,286047002.8,P
1621437255.2,286046999.9,N
1621437275.1,286046999.9,N
1621437276.0,286046999.9,N
1621437295.8,286047000.2,N
1621437315.7,286047002.4,N
1621437335.5,286047001.8,N
1621437355.3,286047002.2,N
1621437375.2,286047002.7,N
1621437395.9,286047002.5,N
1621437415.7,286047002.3,N
1621437435.6,286047000.4,N
1621437455.4,286046999.9,N
1621437475.2,286047000.0,N
1621437495.1,286047001.2,N
1621437496.0,286047001.2,N
1621437515.8,286046999.8,N
1621437535.7,286047000.6,N
1621437555.5,286047000.4,N
1621437575.3,286047002.4,N
1621437595.2,286047002.4,N
1621437615.0,286047002.4,N
1621437615.9,286047002.4,N
1621437635.8,286047000.6,N
1621437655.6,286047000.4,N
1621437675.4,286047000.2,N
1621437695.3,286047000.2,N
1621437715.1,286046999.7,N
1621437735.8,286047002.4,N
1621437755.7,286047000.2,N
1621437775.5,286047002.4,N
1621437795.4,286047002.8,N
1621437815.2,286047000.3,N
1621437835.0,286047000.3,N
1621437835.9,286047000.3,N
1621437855.8,286046999.9,N
1621437875.6,286047002.5,N
1621437895.4,286047002.3,N
1621437915.3,286047002.3,N
1621437935.1,286047001.6,N
1621437955.9,286047001.7,N
1621437975.7,286047004.3,Y
1621437995.5,286047002.2,P
1621438015.4,286047002.2,P
1621438035.2,286047001.9,P
1621438055.1,286047001.8,Y
1621438056.0,286047001.8,P
1621438075.8,286047000.3,P
1621438095.6,286047000.4,N
1621438115.5,286047000.5,N
1621438135.3,286046999.8,N
1621438155.1,286047000.1,N
1621438175.9,286047002.3,Y
1621438195.7,286047001.0,P
1621438215.6,286047000.0,N
1621438235.4,286047000.2,N
1621438255.2,286047002.8,Y
1621438275.1,286047000.0,P
1621438276.0,286047000.0,N
1621438295.8,286047000.0,N
1621438315.7,286047000.7,Y
1621438335.5,286047000.8,P
1621438355.3,286047000.8,N
1621438375.2,286047000.7,N
1621438395.0,286047000.7,N
1621438395.9,286047000.7,N
1621438415.8,286047000.6,N
1621438435.6,286047000.3,N
1621438455.4,286047000.7,N
1621438475.3,286047000.0,N
1621438495.1,286047001.0,Y
1621438515.9,286046999.9,P
1621438535.7,286046998.7,P
1621438555.5,286047001.0,N
1621438575.4,286046999.9,N
1621438595.2,286047000.0,N
1621438615.0,286047000.7,N
1621438615.9,286047000.7,N
1621438635.8,286047000.6,N
1621438655.6,286046998.1,N
1621438675.5,286047000.8,N
1621438695.3,286047001.2,N
1621438715.1,286047000.8,N
1621438735.9,286047000.8,N
1621438755.7,286047000.8,N
1621438775.6,286046998.4,N
1621438795.4,286047000.7,N
1621438815.2,286047000.3,N
1621438835.1,286047000.1,N
1621438836.0,286047000.1,N
1621438855.8,286047000.3,N
1621438875.6,286047000.5,N
1621438895.5,286047000.0,N
1621438915.3,286047000.6,N
1621438935.2,286047002.5,Y
1621438955.0,286047004.2,P
1621438955.9,286047004.2,N
1621438975.7,286047003.8,N
1621438995.6,286047004.1,N
1621439015.4,286047001.7,N
1621439035.3,286047003.9,N
1621439055.1,286047001.8,N
1621439056.0,286047001.8,N
1621439075.8,286047001.4,N
1621439095.7,286047001.3,N
1621439115.5,286047005.9,Y
1621439135.4,286047002.5,P
1621439155.2,286047000.6,P
1621439175.0,286047000.0,N
1621439175.9,286047000.0,N
1621439195.8,286047000.3,N
1621439215.6,286047002.1,N
1621439235.4,286047000.2,N
1621439255.3,286046999.8,N
1621439275.1,286046999.8,N
1621439295.9,286046999.8,N
1621439315.7,286047003.5,Y
1621439335.5,286047005.8,P
1621439355.4,286047006.5,N
1621439375.2,286047009.3,P
1621439395.1,286047009.4,Y
1621439396.0,286047009.4,P
1621439415.8,286047001.3,N
1621439435.6,286047002.1,N
1621439455.5,286046999.8,N
1621439475.3,286047000.3,N
1621439495.1,286047001.2,N
1621439515.9,286046998.6,N
1621439535.7,286046998.1,N
1621439555.6,286046998.8,N
1621439575.4,286046996.7,N
1621439595.2,286046999.4,N
1621439615.1,286046997.3,N
1621439616.0,286046997.3,N
1621439635.8,286046999.3,N
1621439655.7,286046996.5,N
1621439675.5,286046998.9,N
1621439695.3,286046996.5,N
1621439715.2,286046998.9,N
1621439735.0,286046998.5,N
1621439735.9,286046998.5,N
1621439755.7,286047002.1,N
1621439775.6,286047004.4,N
1621439795.4,286047002.6,N
1621439815.3,286047001.8,N
1621439835.1,286047002.1,N
1621439855.8,286047001.9,N
1621439875.7,286047001.5,N
1621439895.5,286046999.7,N
1621439915.4,286047001.0,N
1621439935.2,286047000.7,N
1621439955.0,286046998.2,N
1621439955.9,286046998.2,N
1621439975.8,286047000.4,N
1621439995.6,286047002.2,N
